sat.trackr.live / text

‹ back to catalog

RASSVET-3 7

NORAD 68366 · 2026-061G

PAYLOAD ACTIVE UNKNOWN

§ Identity

Operator
Country
CIS
Launch date
2026-03-23
Launch site
PLMSC
Launch vehicle
Mass (kg)
RCS (m²)

External: N2YO · Heavens-Above · Gunter

§ Orbital elements

Epoch: 2026-09-20T00:50:00.087072Z

Period
94.83 min
Inclination
82.2910°
Eccentricity
0.0002143
Mean motion
15.18429778 rev/d
Perigee alt
509.1 km
Apogee alt
512.1 km
Semi-major
6,888.7 km
B*
9.5837e-5
RAAN
277.3278°
Arg perigee
150.4831°
Mean anomaly
209.6523°
Rev number
2,784

§ Raw data

RASSVET-3 71 68366U 26061G   26263.03472323  .00002002  00000+0  95837-4 0  99962 68366  82.2910 277.3278 0002143 150.4831 209.6523 15.18429778 27841

JSON: /api/v1/satellites/68366 · /tle

For live sub-satellite position, see the globe view (requires WebGL).

§ Visibility from observer

Set your observer location to see the next 7 days of passes ≥ 10°. The values pass through the URL so the page stays shareable.

No JS? Fill the form by hand. The geolocation button needs JavaScript.